Weather History for Crossville, TN

Change the Weather History Date:

Saturday, May 18, 2013

  Actual Average Record
Temperature  
Mean Temperature 68 °F 64 °F  
Max Temperature 75 °F 75 °F 90 °F (1962)
Min Temperature 62 °F 54 °F 35 °F (1973)
Degree Days  
Heating Degree Days 0    
Month to date heating degree days  
Since 1 July heating degree days  
Cooling Degree Days 4    
Month to date cooling degree days  
Year to date cooling degree days  
Growing Degree Days 18 (Base 50)    
Moisture  
Dew Point 63 °F    
Average Humidity 90    
Maximum Humidity 94    
Minimum Humidity 69    
Precipitation  
Precipitation 0.18 in 0.16 in 1.75 in (1992)
Month to date precipitation 3.19  
Year to date precipitation 22.21  
Sea Level Pressure  
Sea Level Pressure 30.04 in    
Wind  
Wind Speed 5 mph (South)    
Max Wind Speed 7 mph    
Max Gust Speed -    
Visibility 6 miles    
Events Rain    
T = Trace of Precipitation, MM = Missing Value Source: NWS Daily Summary

Daily Weather History Graph

Daily Weather History Graph

Search for Another Location

Airport:

Trip Planner

Search our weather history database for the weather conditions in past years. The results will help you decide how hot, cold, wet, or windy it might be!

Date:

Astronomy

May. 18, 2013 Rise Set
Actual Time 5:32 AM CDT 7:41 PM CDT
Civil Twilight 5:03 AM CDT 8:10 PM CDT
Nautical Twilight 4:28 AM CDT 8:45 PM CDT
Astronomical Twilight 3:50 AM CDT 9:23 PM CDT
Moon 12:57 PM CDT (5/18) 1:10 AM CDT (5/18)
Length of Visible Light 15h 07m
Length of Day
14h 09m
First Quarter, 55% of the Moon is Illuminated
May 18
First Quarter
May 24
Full
May 31
Last Quarter
Jun 8
New
Jun 16
First Quarter

Hourly Weather History & Observations

Time (CDT) Temp. Dew Point Humidity Pressure Visibility Wind Dir Wind Speed Gust Speed Precip Events Conditions
12:21 AM 62.6 °F 60.8 °F 94% 30.08 in 5.0 mi SSE 5.8 mph - 0.02 in Rain Light Rain
12:53 AM 63.0 °F 60.1 °F 90% 30.03 in 9.0 mi SSE 4.6 mph - 0.03 in   Overcast
1:23 AM 62.6 °F 60.8 °F 94% 30.07 in 9.0 mi SSE 4.6 mph - N/A   Overcast
1:53 AM 63.0 °F 60.1 °F 90% 30.01 in 8.0 mi Variable 4.6 mph - N/A   Overcast
2:06 AM 62.6 °F 60.8 °F 94% 30.05 in 7.0 mi SSE 4.6 mph - 0.01 in   Overcast
2:29 AM 62.6 °F 60.8 °F 94% 30.05 in 6.0 mi Variable 3.5 mph - 0.01 in Rain Light Rain
2:53 AM 63.0 °F 60.1 °F 90% 30.00 in 5.0 mi South 6.9 mph - 0.03 in Rain Light Rain
3:53 AM 63.0 °F 61.0 °F 93% 29.99 in 10.0 mi SSE 6.9 mph - 0.03 in   Overcast
4:53 AM 63.0 °F 61.0 °F 93% 30.00 in 8.0 mi South 5.8 mph - N/A   Overcast
5:21 AM 62.6 °F 60.8 °F 94% 30.05 in 5.0 mi South 6.9 mph - N/A   Overcast
5:53 AM 63.0 °F 61.0 °F 93% 30.01 in 3.0 mi South 5.8 mph - N/A   Overcast
6:02 AM 62.6 °F 60.8 °F 94% 30.06 in 2.0 mi South 5.8 mph - N/A   Overcast
6:19 AM 62.6 °F 60.8 °F 94% 30.06 in 3.0 mi SSE 6.9 mph - N/A   Overcast
6:51 AM 62.6 °F 60.8 °F 94% 30.07 in 2.0 mi South 4.6 mph - 0.01 in Rain Light Rain
6:53 AM 63.0 °F 61.0 °F 93% 30.03 in 1.8 mi South 5.8 mph - 0.01 in Rain Light Rain
7:19 AM 64.4 °F 62.6 °F 94% 30.07 in 2.0 mi South 3.5 mph - 0.02 in   Overcast
7:32 AM 64.4 °F 62.6 °F 94% 30.08 in 1.2 mi Variable 4.6 mph - 0.02 in   Overcast
7:53 AM 64.0 °F 62.1 °F 93% 30.04 in 1.5 mi Calm Calm - 0.02 in   Overcast
8:03 AM 64.4 °F 62.6 °F 94% 30.08 in 2.5 mi South 3.5 mph - N/A   Overcast
8:38 AM 64.4 °F 62.6 °F 94% 30.08 in 1.8 mi South 3.5 mph - 0.01 in   Overcast
8:43 AM 64.4 °F 62.6 °F 94% 30.08 in 3.0 mi SSE 4.6 mph - 0.01 in   Overcast
8:53 AM 64.0 °F 62.1 °F 93% 30.04 in 2.5 mi South 4.6 mph - 0.01 in   Overcast
9:02 AM 64.4 °F 62.6 °F 94% 30.08 in 1.5 mi Calm Calm - 0.01 in Rain Light Rain
9:11 AM 64.4 °F 62.6 °F 94% 30.08 in 1.5 mi Calm Calm - 0.02 in Rain Light Rain
9:53 AM 64.9 °F 63.0 °F 93% 30.04 in 1.8 mi South 4.6 mph - 0.03 in   Overcast
10:02 AM 64.4 °F 62.6 °F 94% 30.08 in 3.0 mi SSE 4.6 mph - N/A   Overcast
10:53 AM 68.0 °F 64.9 °F 90% 30.04 in 10.0 mi South 4.6 mph - N/A   Overcast
11:42 AM 66.2 °F 64.4 °F 94% 30.08 in 9.0 mi South 5.8 mph - N/A   Overcast
11:53 AM 68.0 °F 64.0 °F 87% 30.03 in 8.0 mi South 6.9 mph - N/A   Overcast
12:01 PM 68.0 °F 64.4 °F 88% 30.07 in 8.0 mi Variable 4.6 mph - N/A   Overcast
12:10 PM 68.0 °F 64.4 °F 88% 30.07 in 9.0 mi South 5.8 mph - N/A   Overcast
12:43 PM 68.0 °F 64.4 °F 88% 30.08 in 7.0 mi South 6.9 mph - 0.01 in Rain Light Rain
12:48 PM 68.0 °F 62.6 °F 83% 30.08 in 6.0 mi Variable 5.8 mph - 0.01 in Rain Light Rain
12:53 PM 66.9 °F 63.0 °F 87% 30.04 in 5.0 mi Variable 5.8 mph - 0.01 in Rain Light Rain
1:36 PM 69.8 °F 64.4 °F 83% 30.07 in 9.0 mi South 5.8 mph - 0.00 in   Mostly Cloudy
2:02 PM 71.6 °F 64.4 °F 78% 30.06 in 10.0 mi South 5.8 mph - N/A   Overcast
2:10 PM 71.6 °F 64.4 °F 78% 30.06 in 10.0 mi SSW 4.6 mph - N/A   Overcast
2:53 PM 73.9 °F 64.9 °F 73% 30.00 in 10.0 mi West 3.5 mph - 0.01 in   Mostly Cloudy
3:53 PM 72.0 °F 66.0 °F 81% 29.99 in 10.0 mi Calm Calm - 0.00 in   Overcast
4:53 PM 75.0 °F 64.0 °F 69% 29.98 in 10.0 mi Variable 5.8 mph - N/A   Mostly Cloudy
5:53 PM 73.0 °F 66.0 °F 79% 29.98 in 10.0 mi South 3.5 mph - N/A   Scattered Clouds
6:53 PM 71.1 °F 66.9 °F 87% 30.00 in 10.0 mi Calm Calm - N/A   Scattered Clouds
7:53 PM 69.1 °F 66.0 °F 90% 30.00 in 7.0 mi Calm Calm - N/A   Partly Cloudy
9:46 PM 68.0 °F 66.2 °F 94% 30.06 in 5.0 mi SE 4.6 mph - N/A   Mostly Cloudy
9:53 PM 68.0 °F 66.0 °F 93% 30.02 in 5.0 mi Calm Calm - N/A   Mostly Cloudy
10:53 PM 66.0 °F 64.0 °F 93% 30.02 in 6.0 mi SE 3.5 mph - N/A   Partly Cloudy
11:53 PM 66.0 °F 63.0 °F 90% 30.01 in 10.0 mi South 4.6 mph - N/A   Partly Cloudy